Tracking 20624 objects as of 28-Mar-2020
HD Live streaming from Space Station
objects crossing your sky now

FREGAT DEB

Track FREGAT DEB now!


NORAD ID: 43395
Int'l Code: 2011-023J
Perigee: 34,500.4 km
Apogee: 35,666.2 km
Inclination: 6.0 °
Period: 1,400.0 minutes
Semi major axis: 41454 km
RCS: Unknown
Launch date: June 7, 2011
Source: Commonwealth of Independent States (former USSR) (CIS)
Launch site: TYURATAM MISSILE AND SPACE COMPLEX (TTMTR)

Note: This is SATELLITE DEBRIS
aabbcc
Your satellite tracking list
Your tracking list is empty




NASA's NSSDC Master Catalog

Two Line Element Set (TLE):
1 43395U 11001J   20073.92251698 -.00000287  00000-0  00000+0 0  9998
2 43395   5.9533  58.8126 0140621 346.5421  15.1146  1.02860438 30520
Source of the keplerian elements: AFSPC